TimeEDT,TemperatureF,Dew PointF,Humidity,Sea Level PressureIn,VisibilityMPH,Wind Direction,Wind SpeedMPH,Gust SpeedMPH,PrecipitationIn,Events,Conditions,WindDirDegrees,DateUTC
12:15 AM,57.2,57.2,100,30.16,7.0,Calm,Calm,-,N/A,,Unknown,0,2012-10-05 04:15:00
12:55 AM,55.4,55.4,100,30.16,5.0,Calm,Calm,-,N/A,,Mist,0,2012-10-05 04:55:00
1:15 AM,57.2,57.2,100,30.16,1.2,Calm,Calm,-,N/A,,Mist,0,2012-10-05 05:15:00
1:35 AM,57.2,57.2,100,30.16,5.0,Calm,Calm,-,N/A,,Mist,0,2012-10-05 05:35:00
1:55 AM,55.4,55.4,100,30.17,2.0,Calm,Calm,-,N/A,,Mist,0,2012-10-05 05:55:00
2:15 AM,55.4,55.4,100,30.17,5.0,Calm,Calm,-,N/A,,Mist,0,2012-10-05 06:15:00
2:35 AM,55.4,55.4,100,30.16,10.0,Calm,Calm,-,N/A,,Unknown,0,2012-10-05 06:35:00
2:55 AM,55.4,55.4,100,30.16,2.5,Calm,Calm,-,N/A,,Mist,0,2012-10-05 06:55:00
3:15 AM,55.4,55.4,100,30.16,5.0,Calm,Calm,-,N/A,,Mist,0,2012-10-05 07:15:00
3:35 AM,55.4,55.4,100,30.15,5.0,Calm,Calm,-,N/A,,Mist,0,2012-10-05 07:35:00
3:55 AM,53.6,53.6,100,30.15,5.0,Calm,Calm,-,N/A,,Mist,0,2012-10-05 07:55:00
4:15 AM,53.6,53.6,100,30.15,5.0,Calm,Calm,-,N/A,,Mist,0,2012-10-05 08:15:00
4:35 AM,53.6,53.6,100,30.15,4.0,Calm,Calm,-,N/A,,Mist,0,2012-10-05 08:35:00
4:55 AM,53.6,53.6,100,30.16,3.0,Calm,Calm,-,N/A,,Mist,0,2012-10-05 08:55:00
5:15 AM,53.6,53.6,100,30.16,1.5,Calm,Calm,-,N/A,,Mist,0,2012-10-05 09:15:00
5:35 AM,51.8,51.8,100,30.16,1.5,Calm,Calm,-,N/A,,Mist,0,2012-10-05 09:35:00
5:55 AM,53.6,53.6,100,30.16,1.2,Calm,Calm,-,N/A,,Mist,0,2012-10-05 09:55:00
6:15 AM,51.8,51.8,100,30.16,2.5,Calm,Calm,-,N/A,,Mist,0,2012-10-05 10:15:00
6:35 AM,51.8,51.8,100,30.16,1.0,Calm,Calm,-,N/A,,Mist,0,2012-10-05 10:35:00
6:55 AM,51.8,51.8,100,30.16,3.0,Calm,Calm,-,N/A,,Mist,0,2012-10-05 10:55:00
7:15 AM,51.8,51.8,100,30.16,0.8,Calm,Calm,-,N/A,,Mist,0,2012-10-05 11:15:00
7:35 AM,51.8,51.8,100,30.15,1.5,Calm,Calm,-,N/A,,Mist,0,2012-10-05 11:35:00
7:55 AM,53.6,53.6,100,30.15,2.0,Calm,Calm,-,N/A,,Mist,0,2012-10-05 11:55:00
8:15 AM,55.4,55.4,100,30.16,7.0,Calm,Calm,-,N/A,,Unknown,0,2012-10-05 12:15:00
8:35 AM,57.2,57.2,100,30.16,10.0,Calm,Calm,-,N/A,,Unknown,0,2012-10-05 12:35:00
8:55 AM,59.0,59.0,100,30.16,10.0,Calm,Calm,-,N/A,,Unknown,0,2012-10-05 12:55:00
9:15 AM,62.6,60.8,94,30.16,10.0,Calm,Calm,-,N/A,,Unknown,0,2012-10-05 13:15:00
9:35 AM,64.4,62.6,94,30.16,10.0,Calm,Calm,-,N/A,,Unknown,0,2012-10-05 13:35:00
9:55 AM,68.0,62.6,83,30.16,10.0,Calm,Calm,-,N/A,,Unknown,0,2012-10-05 13:55:00
10:15 AM,69.8,62.6,78,30.16,10.0,Calm,Calm,-,N/A,,Unknown,0,2012-10-05 14:15:00
10:35 AM,73.4,60.8,65,30.16,10.0,Calm,Calm,-,N/A,,Unknown,0,2012-10-05 14:35:00
10:55 AM,75.2,60.8,61,30.16,10.0,Calm,Calm,-,N/A,,Unknown,0,2012-10-05 14:55:00
11:15 AM,75.2,59.0,57,30.15,10.0,Calm,Calm,-,N/A,,Unknown,0,2012-10-05 15:15:00
11:35 AM,77.0,59.0,54,30.14,10.0,Calm,Calm,-,N/A,,Unknown,0,2012-10-05 15:35:00
11:55 AM,78.8,57.2,47,30.14,10.0,Calm,Calm,-,N/A,,Clear,0,2012-10-05 15:55:00
12:35 PM,78.8,55.4,44,30.12,10.0,Calm,Calm,-,N/A,,Clear,0,2012-10-05 16:35:00
12:55 PM,80.6,53.6,39,30.11,10.0,Calm,Calm,-,N/A,,Clear,0,2012-10-05 16:55:00
1:15 PM,78.8,55.4,44,30.09,10.0,Calm,Calm,-,N/A,,Clear,0,2012-10-05 17:15:00
1:35 PM,80.6,55.4,42,30.08,10.0,WSW,6.9,-,N/A,,Unknown,240,2012-10-05 17:35:00
1:55 PM,80.6,51.8,37,30.07,10.0,WSW,8.1,-,N/A,,Unknown,240,2012-10-05 17:55:00
2:35 PM,80.6,53.6,39,30.05,7.0,SSW,6.9,-,N/A,,Unknown,200,2012-10-05 18:35:00
2:55 PM,80.6,53.6,39,30.05,10.0,SSW,8.1,-,N/A,,Unknown,200,2012-10-05 18:55:00
3:15 PM,80.6,53.6,39,30.04,10.0,SSW,6.9,-,N/A,,Unknown,210,2012-10-05 19:15:00
3:35 PM,82.4,55.4,39,30.04,10.0,SSW,9.2,-,N/A,,Unknown,210,2012-10-05 19:35:00
3:55 PM,80.6,55.4,42,30.04,10.0,SSW,8.1,-,N/A,,Unknown,200,2012-10-05 19:55:00
4:15 PM,80.6,53.6,39,30.03,10.0,SW,8.1,-,N/A,,Unknown,220,2012-10-05 20:15:00
4:35 PM,80.6,55.4,42,30.03,10.0,WSW,5.8,-,N/A,,Unknown,240,2012-10-05 20:35:00
4:55 PM,80.6,55.4,42,30.03,10.0,SSW,5.8,-,N/A,,Unknown,210,2012-10-05 20:55:00
5:15 PM,78.8,55.4,44,30.02,10.0,South,6.9,-,N/A,,Unknown,180,2012-10-05 21:15:00
5:35 PM,78.8,55.4,44,30.02,10.0,SSW,4.6,-,N/A,,Unknown,200,2012-10-05 21:35:00
5:55 PM,78.8,55.4,44,30.02,10.0,Calm,Calm,-,N/A,,Unknown,0,2012-10-05 21:55:00
6:15 PM,75.2,57.2,53,30.01,10.0,South,3.5,-,N/A,,Unknown,170,2012-10-05 22:15:00
6:35 PM,73.4,59.0,61,30.01,10.0,Calm,Calm,-,N/A,,Unknown,0,2012-10-05 22:35:00
6:55 PM,69.8,60.8,73,30.01,10.0,Calm,Calm,-,N/A,,Unknown,0,2012-10-05 22:55:00
7:15 PM,64.4,59.0,83,30.01,10.0,Calm,Calm,-,N/A,,Unknown,0,2012-10-05 23:15:00
7:35 PM,64.4,60.8,88,30.02,10.0,Calm,Calm,-,N/A,,Unknown,0,2012-10-05 23:35:00
7:55 PM,64.4,59.0,83,30.02,10.0,Calm,Calm,-,N/A,,Unknown,0,2012-10-05 23:55:00
8:15 PM,62.6,60.8,94,30.02,10.0,Calm,Calm,-,N/A,,Unknown,0,2012-10-06 00:15:00
8:35 PM,62.6,60.8,94,30.02,10.0,Calm,Calm,-,N/A,,Unknown,0,2012-10-06 00:35:00
8:55 PM,60.8,60.8,100,30.02,10.0,Calm,Calm,-,N/A,,Unknown,0,2012-10-06 00:55:00
9:15 PM,60.8,60.8,100,30.02,10.0,Calm,Calm,-,N/A,,Unknown,0,2012-10-06 01:15:00
9:35 PM,60.8,60.8,100,30.01,10.0,Calm,Calm,-,N/A,,Unknown,0,2012-10-06 01:35:00
9:55 PM,60.8,60.8,100,30.01,10.0,Calm,Calm,-,N/A,,Unknown,0,2012-10-06 01:55:00
10:15 PM,59.0,59.0,100,30.00,10.0,Calm,Calm,-,N/A,,Unknown,0,2012-10-06 02:15:00
10:35 PM,59.0,59.0,100,30.00,7.0,Calm,Calm,-,N/A,,Unknown,0,2012-10-06 02:35:00
10:55 PM,59.0,59.0,100,29.99,7.0,Calm,Calm,-,N/A,,Unknown,0,2012-10-06 02:55:00
11:35 PM,59.0,59.0,100,29.98,5.0,Calm,Calm,-,N/A,,Mist,0,2012-10-06 03:35:00
11:55 PM,57.2,57.2,100,29.97,4.0,Calm,Calm,-,N/A,,Mist,0,2012-10-06 03:55:00